Simultaneous Nadir Overpasses (SNOs) Predictions

Prediction of SNOs between GOES-17 and AQUA Satellite Orbit:

Table of predicted SNOs for the next 14.0 days since TLE Epoch: 7/1/2023
Index Date Time (GOES-17) GOES-17 Lat,Lon AQUA Lat,Lon Distance(km) Time Diff (sec)
1 07/01/2023 08:51:38 0.00,-104.74 0.04,-104.99 28.44 80
2 07/03/2023 08:34:47 0.00,-104.73 -0.70,-101.53 364.31 80
3 07/03/2023 20:55:39 -0.00,-104.71 -0.41,-106.59 213.81 80
4 07/05/2023 20:44:08 -0.00,-104.70 0.35,-103.13 179.10 80
5 07/06/2023 09:04:52 -0.00,-104.73 0.73,-108.15 389.31 80
6 07/08/2023 08:48:00 -0.00,-104.72 -0.01,-104.68 4.17 80
7 07/10/2023 08:33:48 -0.00,-104.72 -0.76,-101.22 398.21 80
8 07/10/2023 20:54:41 0.00,-104.69 -0.32,-106.28 180.08 80
9 07/12/2023 20:43:08 0.00,-104.69 0.41,-102.81 214.41 80
10 07/13/2023 09:03:52 0.00,-104.73 0.65,-107.83 353.09 80
